Weather History for Salinas, CA

Change the Weather History Date:

Friday, November 8, 2013

  Actual Average Record
Temperature  
Mean Temperature 57 °F 57 °F  
Max Temperature 74 °F 69 °F 93 °F (1956)
Min Temperature 40 °F 46 °F 35 °F (1938)
Degree Days  
Heating Degree Days 8 8  
Month to date heating degree days 56 58  
Since 1 July heating degree days 343 392  
Cooling Degree Days 0 0  
Month to date cooling degree days 0 0  
Year to date cooling degree days 155 127  
Growing Degree Days 7 (Base 50)    
Moisture  
Dew Point 41 °F    
Average Humidity 54    
Maximum Humidity 83    
Minimum Humidity 25    
Precipitation  
Precipitation 0.00 in 0.04 in 0.57 in (2002)
Month to date precipitation 0.00 0.29  
Year to date precipitation 2.59 9.79  
Since 1 July precipitation 0.26 1.07  
Sea Level Pressure  
Sea Level Pressure 30.05 in    
Wind  
Wind Speed 4 mph (NE)    
Max Wind Speed 14 mph    
Max Gust Speed 17 mph    
Visibility 10 miles    
Events      
T = Trace of Precipitation, MM = Missing Value Source: NWS Daily Summary

Daily Weather History Graph

Daily Weather History Graph

Search for Another Location

Airport:

Trip Planner

Search our weather history database for the weather conditions in past years. The results will help you decide how hot, cold, wet, or windy it might be!

Date:

Astronomy

Nov. 08, 2013 Rise Set
Actual Time 6:37 AM PST 5:02 PM PST
Civil Twilight 6:10 AM PST 5:29 PM PST
Nautical Twilight 5:39 AM PST 6:00 PM PST
Astronomical Twilight 5:08 AM PST 6:30 PM PST
Moon 11:37 AM PST (11/8) 10:29 PM PST (11/8)
Length of Visible Light 11h 19m
Length of Day
10h 25m
Waxing Crescent, 34% of the Moon is Illuminated
Nov 8
Waxing Crescent
Nov 9
First Quarter
Nov 17
Full
Nov 25
Last Quarter
Dec 2
New

Hourly Weather History & Observations

Time (PST) Temp. Windchill Dew Point Humidity Pressure Visibility Wind Dir Wind Speed Gust Speed Precip Events Conditions
12:53 AM 45.0 °F - 37.0 °F 74% 30.12 in 10.0 mi Calm Calm - N/A   Clear
1:53 AM 43.0 °F - 36.0 °F 76% 30.11 in 10.0 mi Calm Calm - N/A   Clear
2:53 AM 44.1 °F - 36.0 °F 73% 30.12 in 8.0 mi Calm Calm - N/A   Clear
3:53 AM 43.0 °F - 36.0 °F 76% 30.11 in 8.0 mi Calm Calm - N/A   Clear
4:53 AM 42.1 °F - 36.0 °F 79% 30.09 in 8.0 mi Calm Calm - N/A   Clear
5:53 AM 41.0 °F 38.0 °F 34.0 °F 76% 30.08 in 9.0 mi East 4.6 mph - N/A   Clear
6:53 AM 42.1 °F 38.4 °F 33.1 °F 70% 30.08 in 9.0 mi ESE 5.8 mph - N/A   Clear
7:53 AM 48.0 °F - 34.0 °F 58% 30.09 in 10.0 mi ESE 8.1 mph - N/A   Clear
8:50 AM 53.6 °F - 33.8 °F 47% 30.07 in 10.0 mi ESE 11.5 mph - N/A   Partly Cloudy
8:53 AM 55.0 °F - 33.1 °F 43% 30.10 in 10.0 mi ESE 11.5 mph - N/A   Clear
9:53 AM 60.1 °F - 35.1 °F 39% 30.09 in 10.0 mi ESE 9.2 mph - N/A   Clear
10:53 AM 66.0 °F - 35.1 °F 32% 30.08 in 10.0 mi ESE 4.6 mph - N/A   Clear
11:53 AM 70.0 °F - 35.1 °F 28% 30.05 in 10.0 mi Calm Calm - N/A   Clear
12:53 PM 73.0 °F - 36.0 °F 26% 30.01 in 10.0 mi WNW 4.6 mph - N/A   Clear
1:53 PM 66.9 °F - 46.0 °F 47% 29.99 in 10.0 mi WNW 9.2 mph - N/A   Clear
2:53 PM 64.9 °F - 46.9 °F 52% 29.99 in 10.0 mi WNW 10.4 mph - N/A   Clear
3:53 PM 62.1 °F - 51.1 °F 67% 29.99 in 10.0 mi West 9.2 mph - N/A   Clear
4:53 PM 61.0 °F - 51.1 °F 70% 29.98 in 10.0 mi NW 4.6 mph - N/A   Clear
5:53 PM 60.1 °F - 51.1 °F 72% 29.98 in 10.0 mi NW 5.8 mph - N/A   Clear
6:53 PM 57.9 °F - 50.0 °F 75% 29.99 in 10.0 mi North 3.5 mph - N/A   Clear
7:53 PM 55.0 °F - 48.0 °F 77% 30.00 in 10.0 mi Calm Calm - N/A   Clear
8:53 PM 54.0 °F - 48.9 °F 83% 30.01 in 10.0 mi Calm Calm - N/A   Clear
9:53 PM 52.0 °F - 46.0 °F 80% 30.02 in 10.0 mi Calm Calm - N/A   Clear
10:53 PM 48.9 °F - 43.0 °F 80% 30.03 in 10.0 mi Calm Calm - N/A   Clear
11:53 PM 46.9 °F - 42.1 °F 83% 30.02 in 10.0 mi Calm Calm - N/A   Clear